Showing default

CARTOSAT 2C, 41599

Orbit data source: Space-Track

CARTOSAT 2C, 41599 is a payload satellite owned by ISRO (IN) in SSO that was launched on Wed, 22 Jun 2016 UTC via a PSLV-XL launch vehicle from the Sirharikota (SRI). Payload-class satellites include a variety of spacecraft equipped with specific instruments for various scientific and technological missions. These include communications satellites like Starlink; space stations such as the ISS; scientific satellites like the Hubble; Earth observation satellites from companies like Planet Labs, Umbra, and HawkEye 360; GPS; miniature CubeSats for education and research; and military/defense satellites.

Loading next visibility...
Identifier
41599, 2016-040A
Orbit
SSO
Country
Flag of ININ / IND
Related business
Manufacturer
ISRO
Mission
Operational Civil Imaging
Bus & Motor
IRS-2, AOCS
Mass
727 kg wet, ~600 kg dry
Launch date (UTC)
2016-06-22 (9 years ago)
Launch vehicle
PSLV-XL
Launch site
Sirharikota (SRI)
Object type
Payload
Rocket body
Debris
Shape & HBR
Hex Cyl + 2 Pan, 3.0 m
Radar Cross Section
6.456 m², Large (>1 m²)

Expand to show TLE details & history
Last TLE update: 18 hours ago

TLE from 18 hours ago
0 CARTOSAT 2C
1 41599U 16040A   25242.27065028  .00006891  00000-0  32933-3 0  9991
2 41599  97.4151 301.0033 0011977  70.1027 290.1497 15.19269627509542
Epoch: 2025-08-30T06:29Z
TLE epoch observation values (Epoch: 2025-08-30T06:29:44.184Z)
Latitude
-0.00002°
Longitude
-135.13815°
Altitude
508.303 km
Speed
7.611 km/s
True Right ascension
20h 04m 00s
True Declination
0° 00' 00"
Sunlit
Object was in full shadow at epoch
Visualization orbit readout
Latitude
Unknown
Longitude
Unknown
Altitude
Unknown
Speed
Unknown
Apparent Right ascension
Unknown
Apparent Declination
Unknown
Sunlit
N/A
Visualization observer readout
Local Sidereal Time
16:00:16
Azimuth
Unknown
Elevation
Unknown
Doppler factor
Unknown
Orbital elements
Apogee altitude
513.258 km
Perigee altitude
496.77 km
Semi-major axis
6,883.151 km
Eccentricity
0.0012
Inclination
97.4151°
RAAN
301.0033°
Arg. of periapsis
70.1027°
True anomaly
290.02079°
Mean anomaly
290.1497°
Eccentric anomaly
290.08525°
Mean motion
3.80069 °/min
Orbital period
94.72 mins
BSTAR
0.00032933
Loading maneuver chart data...
Computing Atmospheric mass density...
Loading historical data...
Loading historical data...
Loading historical data...
Loading historical data...
Loading historical data...
Loading historical data...
Loading historical data...

Documentation

Showing up to 5 results
|